This is the latest recevied weather packets stored in our database for station/object N6RDS-8. If no packets are shown the sender has not sent any weather packets the latest 10 day(s).
| Time | Temp. | Humidity | Pressure | Rain* | Wind** | Luminosity | Snow |
|---|---|---|---|---|---|---|---|
| 1777656733 | 20.56° C | 51% | 1018.5 hPa | 0 mm | - | 659 W/m² | - |
| 1777656429 | 20.56° C | 54% | 1018.1 hPa | 0 mm | - | 649 W/m² | - |
| 1777656124 | 20.56° C | 53% | 1018.5 hPa | 0 mm | - | 639 W/m² | - |
| 1777655820 | 19.44° C | 58% | 1018.5 hPa | 0 mm | - | 628 W/m² | - |
| 1777655517 | 20° C | 56% | 1018.4 hPa | 0 mm | - | 618 W/m² | - |
| 1777655214 | 19.44° C | 54% | 1018.2 hPa | 0 mm | - | 608 W/m² | - |
| 1777654911 | 19.44° C | 55% | 1018.2 hPa | 0 mm | - | 597 W/m² | - |
| 1777654609 | 19.44° C | 57% | 1018.4 hPa | 0 mm | - | 584 W/m² | - |
| 1777654305 | 18.89° C | 61% | 1018.4 hPa | 0 mm | - | 572 W/m² | - |
| 1777654004 | 18.89° C | 59% | 1018.4 hPa | 0 mm | - | 560 W/m² | - |
| 1777653700 | 18.89° C | 61% | 1018.5 hPa | 0 mm | - | 548 W/m² | - |
| 1777653396 | 18.33° C | 61% | 1018.4 hPa | 0 mm | - | 535 W/m² | - |
| 1777653094 | 17.22° C | 64% | 1018.2 hPa | 0 mm | - | 522 W/m² | - |
| 1777652789 | 17.78° C | 62% | 1018.1 hPa | 0 mm | - | 508 W/m² | - |
| 1777652486 | 17.78° C | 62% | 1018.1 hPa | 0 mm | - | 496 W/m² | - |
| 1777652184 | 18.33° C | 64% | 1018.2 hPa | 0 mm | - | 483 W/m² | - |
| 1777651881 | 17.78° C | 63% | 1018.2 hPa | 0 mm | - | 468 W/m² | - |
| 1777651577 | 17.78° C | 66% | 1018.1 hPa | 0 mm | - | 454 W/m² | - |
| 1777651275 | 16.67° C | 64% | 1018.1 hPa | 0 mm | - | 439 W/m² | - |
| 1777650971 | 16.67° C | 66% | 1018 hPa | 0 mm | - | 425 W/m² | - |
| 1777650668 | 16.67° C | 67% | 1018 hPa | 0 mm | - | 409 W/m² | - |
| 1777650365 | 16.67° C | 68% | 1018.1 hPa | 0 mm | - | 396 W/m² | - |
| 1777650062 | 16.11° C | 67% | 1017.9 hPa | 0 mm | - | 381 W/m² | - |
| 1777649760 | 15.56° C | 71% | 1017.8 hPa | 0 mm | - | 365 W/m² | - |
| 1777649456 | 15.56° C | 71% | 1017.8 hPa | 0 mm | - | 350 W/m² | - |
* Rain latest hour (hover to see other rain measurements)
** Current wind speed in m/s (hover to see current wind gust speed)